THOR ABLESTAR DEB, 210

Orbit data source: Space-Track

THOR ABLESTAR DEB, 210 is space debris in LEO originally from a launch on Thu, 29 Jun 1961 UTC launched from the Air Force Eastern Test Range (AFETR). Debris objects in space refer to the collection of defunct objects orbiting the Earth. Examples of debris include non-operational satellites, rocket bodies, and fragments generated from explosions, collisions, or faulty payload assembly.

Loading next visibility...
Identifier
210, 1961-015BE
Orbit
LEO
Country
Flag of USUS
Related business
Manufacturer
Unknown
Mission
Spacecraft
Bus & Motor
Unknown
Mass
Unknown
Launch date (UTC)
1961-06-29 (64 years ago)
Launch vehicle
Unknown
Launch site
Air Force Eastern Test Range (AFETR)
Object type
Payload
Rocket body
Debris
Shape & HBR
Unknown shape, 0.2 m
Radar Cross Section
Medium (>0.1 m² and <1 m²)

Expand to show TLE details & history
Last TLE update: 17 hours ago

TLE from 17 hours ago
0 THOR ABLESTAR DEB
1 00210U 61015BE  25303.14457674  .00000683  00000-0  62668-3 0  9995
2 00210  66.4569 213.2379 0038693 102.5990 257.9417 13.88750346233450
Epoch: 2025-10-30T03:28Z
TLE epoch observation values (Epoch: 2025-10-30T03:28:11.430Z)
Latitude
0.00006°
Longitude
122.48272°
Altitude
941.076 km
Speed
7.379 km/s
True Right ascension
14h 12m 57s
True Declination
0° 00' 00"
Sunlit
Object was in daylight at epoch
Visualization orbit readout
Latitude
Unknown
Longitude
Unknown
Altitude
Unknown
Speed
Unknown
Apparent Right ascension
Unknown
Apparent Declination
Unknown
Sunlit
N/A
Visualization observer readout
Local Sidereal Time
16:26:10
Azimuth
Unknown
Elevation
Unknown
Doppler factor
Unknown
Orbital elements
Apogee altitude
959.731 km
Perigee altitude
903.165 km
Semi-major axis
7,309.585 km
Eccentricity
0.00387
Inclination
66.4569°
RAAN
213.2379°
Arg. of periapsis
102.599°
True anomaly
257.50854°
Mean anomaly
257.9417°
Eccentric anomaly
257.72507°
Mean motion
3.47299 °/min
Orbital period
103.66 mins
BSTAR
0.00062668
Loading maneuver chart data...
Computing Atmospheric mass density...

Documentation

Showing up to 5 results
|